Weather History for Logansport, IN

Change the Weather History Date:

Tuesday, August 21, 2012

  Actual Average Record
Temperature  
Mean Temperature 62 °F -  
Max Temperature 77 °F 77 °F 86 °F (2013)
Min Temperature 46 °F 57 °F 59 °F (2013)
Degree Days  
Heating Degree Days 4    
Growing Degree Days 12 (Base 50)    
Moisture  
Dew Point 51 °F    
Average Humidity 72    
Maximum Humidity 100    
Minimum Humidity 32    
Precipitation  
Precipitation 0.00 in - - ()
Sea Level Pressure  
Sea Level Pressure 30.07 in    
Wind  
Wind Speed 1 mph ()    
Max Wind Speed 6 mph    
Max Gust Speed -    
Visibility 7.0 miles    
Events Fog    
Averages and records for this station are not official NWS values.
T = Trace of Precipitation, MM = Missing Value Source: Averaged Metar Reports

Daily Weather History Graph

Daily Weather History Graph

Search for Another Location

Airport:

Trip Planner

Search our weather history database for the weather conditions in past years. The results will help you decide how hot, cold, wet, or windy it might be!

Date:

Astronomy

Aug. 21, 2012 Rise Set
Actual Time 7:02 AM EDT 8:34 PM EDT
Civil Twilight 6:33 AM EDT 9:02 PM EDT
Nautical Twilight 5:58 AM EDT 9:37 PM EDT
Astronomical Twilight 5:21 AM EDT 10:14 PM EDT
Moon 11:34 AM EDT (8/21) 10:31 PM EDT (8/21)
Length of Visible Light 14h 29m
Length of Day
13h 31m
Waxing Crescent, 19% of the Moon is Illuminated
Aug 21
Waxing Crescent
Aug 24
First Quarter
Aug 31
Full
Sep 8
Last Quarter
Sep 15
New

Hourly Weather History & Observations

Time (EDT) Temp. Dew Point Humidity Pressure Visibility Wind Dir Wind Speed Gust Speed Precip Events Conditions
12:15 AM 55.4 °F 53.6 °F 94% 30.01 in 10.0 mi Calm Calm - N/A   Clear
12:55 AM 53.6 °F 53.6 °F 100% 30.02 in 0.2 mi Calm Calm - N/A Fog Fog
1:15 AM 53.6 °F 53.6 °F 100% 30.02 in 0.8 mi Calm Calm - N/A   Mostly Cloudy
1:35 AM 51.8 °F 51.8 °F 100% 30.02 in 0.2 mi North 3.5 mph - N/A Fog Fog
1:55 AM 51.8 °F 51.8 °F 100% 30.02 in 1.8 mi Calm Calm - N/A   Scattered Clouds
2:15 AM 51.8 °F 51.8 °F 100% 30.02 in 7.0 mi NNE 4.6 mph - N/A   Clear
2:35 AM 51.8 °F 51.8 °F 100% 30.02 in 5.0 mi Calm Calm - N/A   Clear
2:55 AM 51.8 °F 51.8 °F 100% 30.02 in 0.2 mi Calm Calm - N/A Fog Fog
3:15 AM 51.8 °F 51.8 °F 100% 30.03 in 3.0 mi North 3.5 mph - N/A   Scattered Clouds
3:35 AM 50.0 °F 50.0 °F 100% 30.03 in 0.8 mi Calm Calm - N/A   Mist
3:55 AM 51.8 °F 51.8 °F 100% 30.04 in 0.2 mi Calm Calm - N/A Fog Fog
4:15 AM 51.8 °F 51.8 °F 100% 30.04 in 0.5 mi Calm Calm - N/A Fog Fog
4:35 AM 50.0 °F 50.0 °F 100% 30.04 in 0.2 mi Calm Calm - N/A Fog Fog
4:55 AM 50.0 °F 50.0 °F 100% 30.04 in 1.5 mi SSE 3.5 mph - N/A   Mostly Cloudy
5:15 AM 46.4 °F 46.4 °F 100% 30.04 in 0.5 mi Calm Calm - N/A Fog Fog
5:35 AM 50.0 °F 50.0 °F 100% 30.05 in 1.2 mi Calm Calm - N/A   Overcast
5:55 AM 48.2 °F 48.2 °F 100% 30.04 in 4.0 mi Calm Calm - N/A   Mostly Cloudy
6:15 AM 50.0 °F 50.0 °F 100% 30.05 in 0.2 mi Calm Calm - N/A Fog Fog
6:35 AM 48.2 °F 48.2 °F 100% 30.05 in 0.5 mi Calm Calm - N/A Fog Fog
6:55 AM 48.2 °F 48.2 °F 100% 30.06 in 0.2 mi Calm Calm - N/A Fog Fog
7:15 AM 48.2 °F 48.2 °F 100% 30.06 in 0.5 mi Calm Calm - N/A Fog Fog
7:35 AM 48.2 °F 48.2 °F 100% 30.07 in 1.2 mi Calm Calm - N/A   Mist
7:55 AM 50.0 °F 50.0 °F 100% 30.07 in 1.8 mi Calm Calm - N/A   Scattered Clouds
8:15 AM 51.8 °F 51.8 °F 100% 30.08 in 5.0 mi Calm Calm - N/A   Scattered Clouds
8:35 AM 55.4 °F 53.6 °F 94% 30.08 in 7.0 mi Calm Calm - N/A   Clear
8:55 AM 55.4 °F 55.4 °F 100% 30.08 in 7.0 mi Calm Calm - N/A   Clear
9:15 AM 59.0 °F 57.2 °F 94% 30.09 in 10.0 mi North 3.5 mph - N/A   Clear
9:35 AM 60.8 °F 57.2 °F 88% 30.09 in 10.0 mi North 5.8 mph - N/A   Clear
9:55 AM 62.6 °F 57.2 °F 82% 30.09 in 10.0 mi Calm Calm - N/A   Clear
10:15 AM 64.4 °F 57.2 °F 77% 30.09 in 10.0 mi Calm Calm - N/A   Clear
10:35 AM 66.2 °F 57.2 °F 73% 30.10 in 10.0 mi Calm Calm - N/A   Clear
10:55 AM 68.0 °F 53.6 °F 60% 30.10 in 10.0 mi Calm Calm - N/A   Clear
11:15 AM 68.0 °F 53.6 °F 60% 30.10 in 10.0 mi Calm Calm - N/A   Clear
11:35 AM 69.8 °F 53.6 °F 56% 30.11 in 10.0 mi Calm Calm - N/A   Clear
11:55 AM 69.8 °F 51.8 °F 53% 30.11 in 10.0 mi North 3.5 mph - N/A   Clear
12:15 PM 71.6 °F 51.8 °F 50% 30.11 in 10.0 mi ENE 3.5 mph - N/A   Clear
12:35 PM 71.6 °F 50.0 °F 46% 30.10 in 10.0 mi Calm Calm - N/A   Clear
12:55 PM 71.6 °F 50.0 °F 46% 30.10 in 10.0 mi NE 3.5 mph - N/A   Clear
1:15 PM 73.4 °F 51.8 °F 47% 30.10 in 10.0 mi Calm Calm - N/A   Clear
1:35 PM 73.4 °F 50.0 °F 44% 30.10 in 10.0 mi North 3.5 mph - N/A   Clear
1:55 PM 75.2 °F 50.0 °F 41% 30.10 in 10.0 mi Calm Calm - N/A   Clear
2:15 PM 73.4 °F 50.0 °F 44% 30.09 in 10.0 mi Calm Calm - N/A   Scattered Clouds
2:35 PM 73.4 °F 50.0 °F 44% 30.09 in 10.0 mi East 4.6 mph - N/A   Scattered Clouds
2:55 PM 75.2 °F 51.8 °F 44% 30.09 in 10.0 mi SSE 4.6 mph - N/A   Scattered Clouds
3:15 PM 73.4 °F 50.0 °F 44% 30.08 in 10.0 mi Calm Calm - N/A   Scattered Clouds
3:35 PM 73.4 °F 50.0 °F 44% 30.08 in 10.0 mi Calm Calm - N/A   Scattered Clouds
3:55 PM 77.0 °F 48.2 °F 36% 30.07 in 10.0 mi NNW 3.5 mph - N/A   Mostly Cloudy
4:15 PM 77.0 °F 48.2 °F 36% 30.07 in 10.0 mi NNW 3.5 mph - N/A   Mostly Cloudy
4:35 PM 77.0 °F 50.0 °F 39% 30.07 in 10.0 mi ESE 3.5 mph - N/A   Scattered Clouds
4:55 PM 77.0 °F 46.4 °F 34% 30.07 in 10.0 mi Calm Calm - N/A   Clear
5:15 PM 75.2 °F 46.4 °F 36% 30.07 in 10.0 mi Calm Calm - N/A   Clear
5:35 PM 77.0 °F 44.6 °F 32% 30.07 in 10.0 mi Calm Calm - N/A   Scattered Clouds
5:55 PM 75.2 °F 48.2 °F 38% 30.07 in 10.0 mi Calm Calm - N/A   Mostly Cloudy
6:15 PM 77.0 °F 48.2 °F 36% 30.07 in 10.0 mi North 5.8 mph - N/A   Scattered Clouds
6:35 PM 75.2 °F 50.0 °F 41% 30.08 in 10.0 mi NNW 3.5 mph - N/A   Clear
6:55 PM 75.2 °F 48.2 °F 38% 30.08 in 10.0 mi NNE 3.5 mph - N/A   Clear
7:15 PM 75.2 °F 48.2 °F 38% 30.08 in 10.0 mi Calm Calm - N/A   Clear
7:35 PM 73.4 °F 50.0 °F 44% 30.08 in 10.0 mi North 3.5 mph - N/A   Clear
7:55 PM 71.6 °F 51.8 °F 50% 30.08 in 10.0 mi North 4.6 mph - N/A   Clear
8:15 PM 69.8 °F 53.6 °F 56% 30.08 in 10.0 mi Calm Calm - N/A   Clear
8:35 PM 68.0 °F 51.8 °F 56% 30.09 in 10.0 mi NNE 3.5 mph - N/A   Clear
8:55 PM 64.4 °F 53.6 °F 68% 30.09 in 10.0 mi Calm Calm - N/A   Clear
9:15 PM 62.6 °F 53.6 °F 72% 30.10 in 3.0 mi Calm Calm - N/A   Haze
9:35 PM 62.6 °F 55.4 °F 77% 30.11 in 10.0 mi Calm Calm - N/A   Clear
9:55 PM 62.6 °F 53.6 °F 72% 30.11 in 10.0 mi Calm Calm - N/A   Clear
10:15 PM 59.0 °F 53.6 °F 82% 30.11 in 10.0 mi Calm Calm - N/A   Clear
10:35 PM 62.6 °F 53.6 °F 72% 30.11 in 10.0 mi Calm Calm - N/A   Clear
10:55 PM 59.0 °F 53.6 °F 82% 30.11 in 10.0 mi Calm Calm - N/A   Clear
11:15 PM 59.0 °F 53.6 °F 82% 30.11 in 10.0 mi Calm Calm - N/A   Clear
11:35 PM 57.2 °F 53.6 °F 88% 30.11 in 10.0 mi Calm Calm - N/A   Clear